AISSAT 1 (36797 NORAD) Tracking and Keplerian Element Data

This shows tracking and keplerian element data for the satellite.

Feedback or suggestion? Click here.




ElementValue
Catalog36797
NameAISSAT 1
Epoch Orbit78970
Epoch Day34.712539
Epoch Year2025
RAAN270.8661
Inclination98.1536
Eccentricity0.0008355
Argument of Perigee265.8977
Mean Anonmoly94.1287
Mean Motion14.93934685
Decay Rate5.25E-05
L11 36797U 10035C 25034.71253900 .00005250 00000+0 49869-3 0 9992
L22 36797 98.1536 270.8661 0008355 265.8977 94.1287 14.93934685789705



Live tracking and technical data element details for AISSAT 1 (NORAD 36797). AISSAT 1 can be tracked NOW for your location showing map with azimuth and elevation plus other details from your city location.







IsCatalogInMostPopularTable: catalog: 36797, numindb: 25366
Update: records affected: 1



GetName: 36797 AISSAT 1

Hit Count: updated at: Thu, 19 Jun 2025 09:33:54 GMT